[[{"header":{"parameterUnit":"m.s-1","parameterCategory":1,"la1":30.2991,"la2":30.254,"lo1":-89.0895,"lo2":-89.0444,"dy":0.0017,"dx":0.0017,"nx":28,"ny":28,"refTime":"2025-04-28T21:00:00:Z","depth":0,"parameterNumber":2,"parameterNumberName":"U-component_of_WINDS"},"data":[0,0,0,0,0,0,0,0,0,0,0,0,0,0,0,0,0,0,0,0,0,0,0,0,0,0,0,0,0,0,0,0,0,0,0,0,0,0,0,0,0,0,0,0,0,0,0,0,0,0,0,0,0,0,0,0,0,0,-1.2148,-1.2149,0,-1.2229,-1.223,-1.2231,-1.2258,-1.2258,-1.2257,-1.2257,-1.2344,-1.2347,-1.2349,0,0,0,0,0,0,0,0,0,0,0,0,0,-1.2021,-1.2023,-1.2148,-1.2149,-1.215,-1.2229,-1.223,-1.2231,-1.2258,-1.2258,-1.2257,-1.2257,-1.2343,-1.2346,-1.2349,0,0,0,0,0,0,0,0,0,0,0,0,0,-1.2086,-1.2024,-1.2148,-1.2173,-1.2176,-1.2229,-1.223,-1.2231,-1.2258,-1.2258,-1.2257,-1.2257,-1.2342,-1.2346,-1.235,-1.2385,0,0,-1.2362,-1.2364,0,0,0,0,0,0,0,0,-1.2083,-1.2091,-1.2168,-1.2171,-1.2175,-1.2233,-1.2217,-1.2283,-1.2258,-1.2227,-1.2257,-1.2257,-1.2308,-1.2315,-1.2331,-1.2389,-1.2393,-1.2362,-1.2365,-1.2366,-1.2368,0,0,0,0,0,0,0,-1.2078,-1.2088,-1.218,-1.2169,-1.2173,-1.2182,-1.219,-1.223,-1.227,-1.223,-1.2232,-1.2241,-1.2309,-1.2327,-1.2333,-1.2394,-1.2362,-1.2366,-1.2368,-1.237,-1.2486,-1.2486,0,0,0,0,0,0,-1.2069,-1.2084,-1.2178,-1.2183,-1.2126,-1.2184,-1.2194,-1.2215,-1.2269,-1.2277,-1.2241,-1.2242,-1.2321,-1.2329,-1.2336,-1.2381,-1.2366,-1.237,-1.2372,-1.2485,-1.2486,-1.2486,0,0,0,0,0,0,-1.2066,-1.2077,-1.2174,-1.2134,-1.2147,-1.2187,-1.221,-1.2217,-1.2234,-1.2278,-1.2285,-1.2252,-1.2321,-1.2331,-1.2372,-1.2385,-1.2372,-1.2376,-1.2484,-1.2485,-1.2486,-1.2471,0,0,0,0,0,0,-1.2062,-1.2076,-1.2088,-1.2134,-1.2149,-1.2208,-1.2211,-1.2219,-1.2241,-1.2242,-1.229,-1.2297,-1.2321,-1.2366,-1.2376,-1.239,-1.2379,-1.2483,-1.2484,-1.2486,-1.247,-1.2471,-1.2472,0,0,0,0,0,-1.2057,-1.2081,-1.2089,-1.21,-1.2165,-1.2208,-1.2217,-1.2243,-1.2241,-1.2255,-1.2283,-1.2295,-1.2382,-1.237,-1.2382,-1.2397,-1.2482,-1.2484,-1.2486,-1.247,-1.2471,-1.2472,0,0,0,0,0,0,-1.2037,-1.2088,-1.2096,-1.2135,-1.2167,-1.2213,-1.2231,-1.2243,-1.2277,-1.2277,-1.2309,-1.232,-1.2359,-1.2382,-1.2369,-1.2434,-1.2433,-1.2437,-1.2417,-1.2418,-1.2419,-1.2413,-1.2382,0,0,0,0,0,-1.2037,-1.2067,-1.211,-1.214,-1.2155,-1.219,-1.221,-1.2227,-1.2262,-1.2276,-1.2307,-1.2341,-1.2376,-1.2399,-1.2433,-1.2474,-1.2485,-1.249,-1.2491,-1.2491,-1.2494,-1.2519,-1.2521,-1.2492,-1.2492,-1.2492,0,0,-1.2038,-1.2069,-1.2086,-1.2137,-1.2163,-1.2195,-1.2201,-1.2234,-1.2258,-1.2281,-1.2322,-1.2346,-1.2387,-1.2428,-1.2448,-1.2449,-1.2505,-1.2493,-1.2493,-1.2496,-1.2521,-1.2523,-1.2526,-1.2493,-1.2493,-1.2492,0,0,-1.2055,-1.2081,-1.2109,-1.2135,-1.2175,-1.2198,-1.2205,-1.2249,-1.2265,-1.2307,-1.2325,-1.2355,-1.2414,-1.2442,-1.2465,-1.2493,-1.2506,-1.2503,-1.2507,-1.253,-1.2533,-1.2535,-1.2546,-1.2549,-1.2506,-1.2506,-1.2506,0,-1.2051,-1.2097,-1.2122,-1.2154,-1.2176,-1.2198,-1.2228,-1.2253,-1.2302,-1.2318,-1.2318,-1.2393,-1.2422,-1.247,-1.2477,-1.2494,-1.2504,-1.2498,-1.253,-1.2533,-1.2535,-1.2546,-1.255,-1.2506,-1.2506,-1.2506,-1.2506,0,-1.209,-1.2122,-1.214,-1.2186,-1.2211,-1.2241,-1.2273,-1.2295,-1.2311,-1.2334,-1.2377,-1.2412,-1.2454,-1.2467,-1.2483,-1.2519,-1.2518,-1.2524,-1.2523,-1.2537,-1.2548,-1.2552,-1.2505,-1.2505,-1.2505,-1.2505,0,0,-1.2097,-1.2156,-1.2162,-1.2184,-1.2229,-1.2255,-1.2288,-1.2328,-1.2346,-1.238,-1.2409,-1.2459,-1.2464,-1.2489,-1.2509,-1.2529,-1.255,-1.2532,-1.2534,-1.2535,-1.2593,-1.2588,-1.2592,-1.2559,-1.2559,-1.256,-1.2589,0,-1.212,-1.2176,-1.2201,-1.2247,-1.2277,-1.2298,-1.2327,-1.2358,-1.2381,-1.2412,-1.2438,-1.2473,-1.2477,-1.2493,-1.2514,-1.2543,-1.2562,-1.2541,-1.2587,-1.2588,-1.2576,-1.2598,-1.2593,-1.2619,-1.2594,-1.2594,-1.2595,0,-1.2154,-1.2186,-1.2235,-1.2277,-1.2291,-1.2316,-1.2355,-1.2383,-1.2421,-1.2436,-1.2464,-1.2482,-1.2519,-1.2516,-1.2567,-1.2552,-1.2572,-1.2589,-1.2591,-1.2597,-1.2592,-1.2605,-1.2628,-1.2632,-1.2602,-1.2601,-1.2601,0,-1.2154,-1.221,-1.2247,-1.2265,-1.2315,-1.2332,-1.2354,-1.239,-1.2413,-1.2448,-1.2463,-1.2502,-1.2524,-1.2554,-1.2583,-1.2578,-1.2632,-1.2631,-1.2647,-1.2646,-1.2658,-1.2657,-1.2685,-1.267,-1.267,-1.267,-1.267,0,-1.2178,-1.2207,-1.2248,-1.227,-1.2304,-1.2332,-1.2366,-1.2389,-1.2422,-1.2451,-1.2472,-1.2499,-1.2535,-1.2567,-1.259,-1.2629,-1.2639,-1.2653,-1.2659,-1.2652,-1.265,-1.2666,-1.2665,-1.2671,-1.2671,-1.2671,-1.267,0,-1.2184,-1.2212,-1.2253,-1.2297,-1.2309,-1.2332,-1.2371,-1.2394,-1.2418,-1.2454,-1.2465,-1.2503,-1.2542,-1.2573,-1.2624,-1.264,-1.2681,-1.2688,-1.2668,-1.2671,-1.2685,-1.2684,-1.2725,-1.2733,-1.2712,-1.2712,-1.2712,0,-1.2197,-1.222,-1.2266,-1.2286,-1.2307,-1.2339,-1.2362,-1.2392,-1.2415,-1.2459,-1.2478,-1.2518,-1.2551,-1.2613,-1.2646,-1.2685,-1.2694,-1.2705,-1.27,-1.2692,-1.2695,-1.2693,-1.2696,-1.2706,-1.2706,-1.2706,-1.2706,0,-1.2218,-1.2231,-1.2262,-1.2299,-1.2325,-1.2356,-1.2388,-1.2403,-1.2439,-1.2464,-1.2503,-1.2529,-1.2581,-1.2621,-1.2664,-1.2689,-1.2704,-1.2708,-1.2713,-1.2706,-1.2694,-1.2701,-1.267,-1.2707,-1.2707,-1.2707,-1.2706,-1.2706,-1.2228,-1.225,-1.2285,-1.232,-1.2347,-1.2375,-1.24,-1.2426,-1.2459,-1.2502,-1.2518,-1.2558,-1.2596,-1.2656,-1.268,-1.2713,-1.2715,-1.2723,-1.2726,-1.2727,-1.2727,-1.2688,-1.2721,-1.2721,-1.2722,-1.2722,-1.2722,0,-1.2251,-1.2274,-1.2306,-1.2349,-1.2376,-1.2387,-1.2422,-1.2445,-1.248,-1.2513,-1.2545,-1.2591,-1.263,-1.2666,-1.2707,-1.2727,-1.2735,-1.2737,-1.2736,-1.2741,-1.2723,-1.2713,-1.2729,-1.2729,-1.2729,-1.2729,-1.2729,-1.2729,-1.2265,-1.2302,-1.2319,-1.237,-1.2394,-1.2433,-1.2452,-1.2479,-1.2506,-1.2555,-1.2587,-1.261,-1.2645,-1.2689,-1.2726,-1.2736,-1.275,-1.275,-1.2762,-1.2744,-1.2743,-1.2741,-1.2733,-1.2753,-1.2753,-1.2778,-1.2778,-1.2779]},{"header":{"parameterUnit":"m.s-1","parameterCategory":1,"la1":30.2991,"la2":30.254,"lo1":-89.0895,"lo2":-89.0444,"dy":0.0017,"dx":0.0017,"nx":28,"ny":28,"refTime":"2025-04-28T21:00:00:Z","depth":0,"parameterNumber":3,"parameterNumberName":"V-component_of_WINDS"},"data":[0,0,0,0,0,0,0,0,0,0,0,0,0,0,0,0,0,0,0,0,0,0,0,0,0,0,0,0,0,0,0,0,0,0,0,0,0,0,0,0,0,0,0,0,0,0,0,0,0,0,0,0,0,0,0,0,0,0,1.9508,1.9508,0,1.952,1.952,1.952,1.9505,1.9505,1.9504,1.9504,1.9514,1.9515,1.9516,0,0,0,0,0,0,0,0,0,0,0,0,0,1.9473,1.9474,1.9508,1.9508,1.9509,1.952,1.952,1.952,1.9506,1.9505,1.9504,1.9504,1.9514,1.9515,1.9516,0,0,0,0,0,0,0,0,0,0,0,0,0,1.9487,1.9474,1.9508,1.9503,1.9502,1.952,1.952,1.952,1.9506,1.9505,1.9504,1.9503,1.9514,1.9515,1.9516,1.9538,0,0,1.9519,1.952,0,0,0,0,0,0,0,0,1.9486,1.9488,1.9503,1.9503,1.9503,1.951,1.9511,1.9526,1.9506,1.9504,1.9504,1.9503,1.9513,1.9515,1.9518,1.9539,1.9539,1.9519,1.952,1.9521,1.9521,0,0,0,0,0,0,0,1.9485,1.9487,1.9513,1.9504,1.9503,1.9499,1.95,1.9514,1.9513,1.9504,1.9503,1.9505,1.9513,1.9517,1.9518,1.954,1.9519,1.952,1.9521,1.9522,1.9579,1.958,0,0,0,0,0,0,1.9485,1.9487,1.9512,1.9513,1.9492,1.9501,1.9502,1.9509,1.9513,1.9513,1.9506,1.9504,1.9516,1.9517,1.9519,1.9545,1.9521,1.9522,1.9522,1.9578,1.9579,1.958,0,0,0,0,0,0,1.9484,1.9487,1.9512,1.95,1.9502,1.9502,1.951,1.9509,1.9513,1.9514,1.9514,1.951,1.9515,1.9517,1.9534,1.9545,1.9522,1.9523,1.9577,1.9578,1.958,1.9598,0,0,0,0,0,0,1.9483,1.9487,1.9496,1.95,1.9503,1.9527,1.9511,1.951,1.9516,1.9514,1.9518,1.9518,1.9515,1.9532,1.9535,1.9546,1.9524,1.9576,1.9578,1.9579,1.9597,1.96,1.9603,0,0,0,0,0,1.9482,1.9501,1.9497,1.95,1.9514,1.9528,1.953,1.9526,1.9517,1.9525,1.9526,1.9518,1.9544,1.9534,1.9537,1.9549,1.9575,1.9577,1.9579,1.9595,1.9599,1.9603,0,0,0,0,0,0,1.9498,1.9501,1.9497,1.9517,1.9522,1.9525,1.9536,1.953,1.9538,1.9536,1.9531,1.9532,1.9549,1.9551,1.954,1.9571,1.9558,1.956,1.9569,1.9573,1.9576,1.9575,1.9525,0,0,0,0,0,1.9504,1.9515,1.9517,1.9535,1.9538,1.9537,1.9542,1.9539,1.9544,1.9546,1.9547,1.9552,1.9561,1.9567,1.9576,1.9597,1.9597,1.9607,1.961,1.9613,1.9615,1.9626,1.963,1.9586,1.9586,1.9586,0,0,1.9516,1.9519,1.9526,1.9538,1.9542,1.9553,1.9538,1.9551,1.9559,1.9548,1.9563,1.9565,1.957,1.9588,1.9597,1.959,1.9627,1.9615,1.9617,1.9618,1.9628,1.9632,1.9636,1.9587,1.9587,1.9587,0,0,1.9544,1.9548,1.9563,1.9567,1.9573,1.9572,1.9575,1.9579,1.958,1.9596,1.9587,1.9597,1.9613,1.9616,1.962,1.965,1.9643,1.9653,1.9669,1.968,1.9683,1.9686,1.9696,1.97,1.9655,1.9655,1.9655,0,1.9558,1.9575,1.9571,1.9584,1.9589,1.958,1.9595,1.9599,1.9607,1.9611,1.9604,1.9623,1.9626,1.9646,1.9653,1.9656,1.966,1.9652,1.9683,1.9686,1.9689,1.9698,1.9702,1.9656,1.9656,1.9656,1.9656,0,1.9592,1.9604,1.9615,1.9624,1.963,1.9644,1.9642,1.9649,1.9645,1.9645,1.9661,1.9664,1.9673,1.9677,1.9674,1.9696,1.9692,1.9684,1.9671,1.9694,1.9703,1.9706,1.9658,1.9657,1.9657,1.9657,0,0,1.963,1.9636,1.964,1.9644,1.965,1.9658,1.9672,1.9681,1.9687,1.9693,1.9703,1.9717,1.971,1.9714,1.9711,1.9721,1.9743,1.9711,1.9711,1.9717,1.9767,1.9773,1.9777,1.9739,1.9739,1.974,1.9767,0,1.9657,1.9681,1.9678,1.97,1.9711,1.9702,1.9714,1.9718,1.9718,1.9727,1.9727,1.9737,1.9727,1.9729,1.9738,1.9738,1.9753,1.9736,1.9748,1.9748,1.9746,1.9782,1.9788,1.9813,1.977,1.9771,1.9771,0,1.9692,1.97,1.9723,1.9727,1.9732,1.9742,1.975,1.9758,1.9763,1.9763,1.9768,1.9763,1.9776,1.9763,1.978,1.9769,1.9773,1.9774,1.9775,1.9776,1.9761,1.9783,1.9821,1.9825,1.9777,1.9776,1.9776,0,1.9717,1.9733,1.9749,1.9752,1.9758,1.9765,1.9767,1.9772,1.9777,1.9784,1.9787,1.9795,1.98,1.9806,1.9803,1.9794,1.9821,1.9808,1.982,1.982,1.9826,1.9826,1.9865,1.983,1.983,1.983,1.983,0,1.9748,1.9762,1.976,1.977,1.9786,1.9782,1.9798,1.9799,1.9803,1.9813,1.9806,1.9815,1.9811,1.9819,1.9817,1.9832,1.9834,1.9833,1.9832,1.9834,1.9834,1.9836,1.9834,1.9831,1.983,1.983,1.983,0,1.9778,1.9777,1.9794,1.9797,1.9799,1.981,1.9813,1.9822,1.9822,1.9834,1.9836,1.9836,1.9846,1.9843,1.9854,1.9853,1.9871,1.9868,1.9869,1.9868,1.9881,1.988,1.9923,1.9928,1.989,1.9891,1.9891,0,1.9797,1.9808,1.9813,1.9819,1.9822,1.9832,1.9838,1.9835,1.9841,1.9847,1.9855,1.9864,1.9872,1.9888,1.9888,1.9896,1.9893,1.9908,1.9894,1.9895,1.9893,1.9892,1.9893,1.991,1.9911,1.9911,1.9911,0,1.9832,1.9831,1.984,1.9848,1.9855,1.9862,1.9867,1.9873,1.987,1.9877,1.9887,1.9893,1.9904,1.9913,1.992,1.9922,1.9916,1.9916,1.9919,1.992,1.992,1.992,1.9876,1.9914,1.9914,1.9914,1.9914,1.9914,1.9857,1.9866,1.9871,1.9881,1.9885,1.989,1.9899,1.99,1.9908,1.9917,1.9915,1.9926,1.993,1.994,1.9943,1.9951,1.9946,1.995,1.9952,1.9953,1.9954,1.9919,1.9953,1.9952,1.9952,1.9952,1.9952,0,1.9891,1.9893,1.9902,1.9911,1.9918,1.9913,1.9919,1.9925,1.9935,1.994,1.9947,1.9959,1.9968,1.9969,1.9977,1.9983,1.9981,1.9986,1.9985,1.9985,1.9959,1.9955,1.9988,1.9988,1.9988,1.9988,1.9988,1.9988,1.9909,1.9925,1.9924,1.9941,1.9944,1.9955,1.9959,1.9964,1.9967,1.9981,1.9988,1.9989,1.9992,2.0,2.0008,2.0008,2.0011,2.0017,2.0016,1.9991,1.9987,1.9984,1.998,2.0018,2.0018,2.0041,2.0042,2.0042]}]]